Showing default

COSMOS 1994, 19785

Orbit data source: Space-Track

COSMOS 1994, 19785 is a payload satellite owned by UNKS (CIS) in LEO that was launched on Fri, 10 Feb 1989 UTC via a TSIKLON-3 launch vehicle from the Plesetsk Missile And Space Complex (PKMTR). Payload-class satellites include a variety of spacecraft equipped with specific instruments for various scientific and technological missions. These include communications satellites like Starlink; space stations such as the ISS; scientific satellites like the Hubble; Earth observation satellites from companies like Planet Labs, Umbra, and HawkEye 360; GPS; miniature CubeSats for education and research; and military/defense satellites.

Loading next visibility...
Identifier
19785, 1989-009A
Orbit
LEO
Country
Flag of CISCIS
Related business
Manufacturer
NPO PM
Mission
Defense Communications
Bus & Motor
STRELA-3, Unknown motor
Mass
225 kg wet, 225 kg dry
Launch date (UTC)
1989-02-10 (37 years ago)
Launch vehicle
TSIKLON-3
Launch site
Plesetsk Missile And Space Complex (PKMTR)
Object type
Payload
Rocket body
Debris
Shape & HBR
Cyl, 0.8 m
Radar Cross Section
1.257 m², Large (>1 m²)

Expand to show TLE details & history
Last TLE update: 9 hours ago

TLE from 9 hours ago
0 COSMOS 1994
1 19785U 89009A   26036.11338825  .00000026  00000-0  86389-4 0  9990
2 19785  82.6171  75.9029 0011811 247.8563 126.9424 12.64339373706693
Epoch: 2026-02-05T02:43Z
TLE epoch observation values (Epoch: 2026-02-05T02:43:16.744Z)
Latitude
14.75545°
Longitude
-98.24109°
Altitude
1,412.652 km
Speed
7.153 km/s
True Right ascension
05h 11m 23s
True Declination
14° 40' 41"
Sunlit
Object was in daylight at epoch
Visualization orbit readout
Latitude
Unknown
Longitude
Unknown
Altitude
Unknown
Speed
Unknown
Apparent Right ascension
Unknown
Apparent Declination
Unknown
Sunlit
N/A
Visualization observer readout
Local Sidereal Time
14:07:20
Azimuth
Unknown
Elevation
Unknown
Doppler factor
Unknown
Orbital elements
Apogee altitude
1,411.591 km
Perigee altitude
1,393.211 km
Semi-major axis
7,780.538 km
Eccentricity
0.00118
Inclination
82.6171°
RAAN
75.9029°
Arg. of periapsis
247.8563°
True anomaly
127.05048°
Mean anomaly
126.9424°
Eccentric anomaly
126.99645°
Mean motion
3.16249 °/min
Orbital period
113.83 mins
BSTAR
0.000086389
Loading maneuver chart data...
Computing Atmospheric mass density...
Loading historical data...
Loading historical data...
Loading historical data...
Loading historical data...
Loading historical data...
Loading historical data...
Loading historical data...

Documentation

Showing up to 5 results
|